TimeCDT,TemperatureF,Dew PointF,Humidity,Sea Level PressureIn,VisibilityMPH,Wind Direction,Wind SpeedMPH,Gust SpeedMPH,PrecipitationIn,Events,Conditions,WindDirDegrees,DateUTC
12:15 AM,68.0,46.4,46,30.00,10.0,ESE,8.1,-,N/A,,Clear,110,2013-04-02 05:15:00
12:35 AM,68.0,46.4,46,30.00,10.0,ESE,5.8,-,N/A,,Clear,110,2013-04-02 05:35:00
12:55 AM,68.0,46.4,46,29.97,10.0,SE,11.5,-,N/A,,Clear,140,2013-04-02 05:55:00
1:15 AM,68.0,48.2,49,29.96,10.0,SSE,12.7,21.9,N/A,,Clear,150,2013-04-02 06:15:00
1:35 AM,69.8,48.2,46,29.97,10.0,ESE,9.2,-,N/A,,Clear,110,2013-04-02 06:35:00
1:55 AM,68.0,50.0,52,29.97,10.0,ESE,12.7,-,N/A,,Clear,120,2013-04-02 06:55:00
2:15 AM,68.0,50.0,52,29.97,10.0,ESE,9.2,-,N/A,,Clear,110,2013-04-02 07:15:00
2:35 AM,68.0,50.0,52,29.96,10.0,ESE,12.7,17.3,N/A,,Clear,110,2013-04-02 07:35:00
2:55 AM,68.0,50.0,52,29.97,10.0,ESE,11.5,-,N/A,,Mostly Cloudy,110,2013-04-02 07:55:00
3:15 AM,68.0,50.0,52,29.97,10.0,ESE,11.5,17.3,N/A,,Mostly Cloudy,120,2013-04-02 08:15:00
3:35 AM,68.0,51.8,56,29.97,10.0,SE,12.7,19.6,N/A,,Mostly Cloudy,130,2013-04-02 08:35:00
3:55 AM,68.0,53.6,60,29.96,10.0,SE,10.4,-,N/A,,Mostly Cloudy,130,2013-04-02 08:55:00
4:15 AM,68.0,53.6,60,29.95,10.0,SE,11.5,16.1,N/A,,Overcast,130,2013-04-02 09:15:00
4:35 AM,68.0,55.4,64,29.96,10.0,SE,11.5,-,N/A,,Overcast,130,2013-04-02 09:35:00
4:55 AM,66.2,55.4,68,29.95,10.0,SE,9.2,-,N/A,,Overcast,130,2013-04-02 09:55:00
5:15 AM,66.2,55.4,68,29.94,10.0,ESE,15.0,-,N/A,,Scattered Clouds,120,2013-04-02 10:15:00
5:35 AM,66.2,57.2,73,29.96,10.0,ESE,13.8,-,N/A,,Scattered Clouds,120,2013-04-02 10:35:00
5:47 AM,66.2,57.2,73,29.98,10.0,ESE,9.2,16.1,N/A,,Mostly Cloudy,120,2013-04-02 10:47:00
5:55 AM,66.2,57.2,73,29.97,10.0,SE,9.2,-,N/A,,Mostly Cloudy,130,2013-04-02 10:55:00
6:50 AM,66.2,60.8,83,29.97,10.0,ESE,16.1,21.9,N/A,,Scattered Clouds,120,2013-04-02 11:50:00
7:47 AM,66.2,60.8,83,29.96,10.0,ESE,16.1,21.9,N/A,,Mostly Cloudy,120,2013-04-02 12:47:00
9:51 AM,66.2,60.8,83,30.02,10.0,South,8.1,-,N/A,,Overcast,170,2013-04-02 14:51:00
10:52 AM,68.0,60.8,78,30.02,10.0,SSE,12.7,18.4,N/A,,Mostly Cloudy,160,2013-04-02 15:52:00
12:47 PM,68.0,59.0,73,30.00,10.0,South,12.7,20.7,N/A,,Overcast,170,2013-04-02 17:47:00
1:47 PM,68.0,60.8,78,30.00,7.0,South,9.2,-,N/A,,Overcast,180,2013-04-02 18:47:00
2:48 PM,62.6,59.0,88,29.98,7.0,NNW,8.1,-,N/A,,Overcast,330,2013-04-02 19:48:00
3:55 PM,64.4,59.0,83,29.94,6.0,NNE,5.8,-,N/A,,Mostly Cloudy,20,2013-04-02 20:55:00
4:47 PM,66.2,59.0,78,29.95,7.0,Calm,Calm,-,N/A,,Overcast,0,2013-04-02 21:47:00
5:50 PM,68.0,60.8,78,29.93,10.0,North,9.2,-,N/A,,Overcast,360,2013-04-02 22:50:00
6:47 PM,66.2,59.0,78,29.93,10.0,NNE,12.7,17.3,N/A,,Overcast,20,2013-04-02 23:47:00
7:47 PM,62.6,51.8,68,29.96,13.0,ENE,15.0,26.5,N/A,,Overcast,60,2013-04-03 00:47:00
8:50 PM,59.0,46.4,63,30.00,13.0,NE,16.1,26.5,N/A,,Overcast,50,2013-04-03 01:50:00
9:47 PM,55.4,44.6,67,30.00,10.0,NE,18.4,27.6,N/A,,Overcast,50,2013-04-03 02:47:00
10:15 PM,53.6,42.8,67,30.01,10.0,ENE,17.3,29.9,N/A,,Overcast,70,2013-04-03 03:15:00
10:35 PM,53.6,42.8,67,30.01,10.0,ENE,21.9,32.2,N/A,,Overcast,60,2013-04-03 03:35:00
10:55 PM,51.8,41.0,67,30.03,10.0,East,20.7,24.2,N/A,,Overcast,80,2013-04-03 03:55:00
11:15 PM,51.8,41.0,67,30.01,10.0,East,16.1,26.5,N/A,Rain,Rain,90,2013-04-03 04:15:00
11:35 PM,50.0,42.8,76,30.00,10.0,East,16.1,24.2,N/A,Rain,Light Rain,100,2013-04-03 04:35:00
11:55 PM,51.8,42.8,71,29.99,10.0,East,16.1,28.8,N/A,,Overcast,100,2013-04-03 04:55:00